EW6063 Weather Reports


time (UTC)temp
C
wind
direction
speed
KPH
gust
KPH
rain 1hr
cm
rain 24hr
cm
rain mn
cm
humidity
%
barometer
mb
20260505153031 12 23 6.4 14.5 0.00 1.07 1.07 93 1006.1
20260505152530 12 13 6.4 14.5 0.00 1.07 1.07 93 1006.1
20260505152030 12 5 4.8 9.7 0.00 1.07 1.07 93 1006.2
20260505151534 12 11 4.8 11.3 0.00 1.07 1.07 93 1006.3
20260505151028 12 22 6.4 12.9 0.00 1.07 1.07 93 1006.2
20260505150528 13 5 4.8 9.7 0.00 1.07 1.07 93 1006.0
20260505140524 13 360 3.2 12.9 0.00 1.07 1.07 93 1005.0
20260505125011 15 22 1.6 6.4 0.00 1.07 1.07 94 1005.1
20260505124510 15 22 1.6 6.4 0.00 1.07 1.07 94 1004.7
20260505124010 15 22 1.6 4.8 0.00 1.07 1.07 94 1004.6
20260505123510 15 22 1.6 4.8 0.00 1.07 1.07 94 1004.5
20260505123009 15 22 0.0 3.2 0.00 1.07 1.07 94 1004.6
20260505122509 15 22 0.0 4.8 0.00 1.07 1.07 94 1004.5
20260505122008 15 22 1.6 4.8 0.00 1.07 1.07 94 1004.5
20260505121510 15 22 0.0 1.6 0.00 1.07 1.07 94 1004.5
20260505121009 15 22 0.0 3.2 0.00 1.07 1.07 94 1004.4
20260505120507 15 22 0.0 3.2 0.00 1.07 1.07 94 1004.3
20260505120026 15 22 0.0 3.2 0.00 1.07 1.07 94 1004.2
20260505115507 15 22 0.0 4.8 0.00 1.07 1.07 94 1004.1
20260505115007 15 22 1.6 4.8 0.00 1.07 1.07 94 1003.9
20260505114508 15 22 0.0 1.6 0.00 1.07 1.07 94 1003.8
20260505114007 15 22 0.0 4.8 0.00 1.07 1.07 94 1003.8
20260505113506 15 22 0.0 4.8 0.00 1.07 1.07 94 1003.9
20260505113005 15 34 1.6 4.8 0.00 1.07 1.07 94 1003.9
20260505112505 15 35 1.6 4.8 0.00 1.07 1.07 94 1003.8
20260505112005 15 18 0.0 4.8 0.00 1.07 1.07 94 1003.9
20260505111506 15 18 0.0 4.8 0.00 1.07 1.07 94 1003.7
20260505111009 15 18 1.6 8.0 0.00 1.07 1.07 94 1003.7
20260505110507 15 19 3.2 8.0 0.00 1.07 1.07 94 1003.8
20260505102003 16 360 1.6 4.8 0.00 1.07 1.07 94 1003.4
20260505101504 16 360 0.0 6.4 0.00 1.07 1.07 94 1003.4
20260505101002 16 360 3.2 6.4 0.00 1.07 1.07 94 1003.5
20260505100502 16 136 0.0 4.8 0.00 1.07 1.07 93 1003.4
20260505100002 16 136 0.0 0.0 0.00 1.07 1.07 93 1003.3
20260505095100 16 136 0.0 0.0 0.00 1.07 1.07 94 1003.3
20260505094559 16 136 0.0 0.0 0.00 1.07 1.07 93 1003.3
20260505094059 16 136 0.0 0.0 0.00 1.07 1.07 93 1003.2
20260505093559 16 136 0.0 0.0 0.00 1.07 1.07 93 1003.3
20260505093059 16 136 0.0 0.0 0.00 1.07 1.07 93 1003.3
20260505092558 16 136 0.0 0.0 0.00 1.07 1.07 93 1003.4
20260505092058 16 136 0.0 0.0 0.00 1.07 1.07 93 1003.4
20260505091605 16 136 0.0 0.0 0.00 1.07 1.07 93 1003.7
20260505091059 16 136 0.0 0.0 0.00 1.07 1.07 93 1004.0
20260505090557 16 136 0.0 0.0 0.00 1.07 1.07 93 1004.0
20260505090056 16 136 0.0 0.0 0.00 1.07 1.07 93 1004.1
20260505085556 16 136 0.0 0.0 0.00 1.07 1.07 93 1004.2
20260505085055 16 136 0.0 0.0 0.00 1.07 1.07 93 1004.3
20260505084556 16 136 0.0 0.0 0.00 1.07 1.07 93 1004.2
20260505084055 16 136 0.0 0.0 0.00 1.07 1.07 93 1004.0
20260505083555 16 136 0.0 0.0 0.00 1.07 1.07 92 1003.8
20260505083055 16 136 0.0 0.0 0.00 1.07 1.07 92 1003.7
20260505082555 16 136 0.0 0.0 0.00 1.07 1.07 93 1003.5
20260505082055 16 136 0.0 0.0 0.00 1.07 1.07 92 1003.8
20260505081554 16 136 0.0 0.0 0.00 1.07 1.07 92 1003.8
20260505081054 16 136 0.0 1.6 0.00 1.07 1.07 92 1003.8
20260505080555 16 136 0.0 1.6 0.00 1.07 1.07 92 1003.6
20260505080054 16 136 0.0 1.6 0.00 1.07 1.07 92 1003.6
20260505075553 16 136 0.0 3.2 0.05 1.07 1.07 92 1003.0
20260505075052 16 136 0.0 3.2 0.20 1.07 1.07 91 1004.2
20260505074558 16 136 1.6 3.2 0.36 1.07 1.07 91 1004.5
20260505074051 16 136 1.6 4.8 0.51 1.07 1.07 91 1004.8
20260505073552 16 138 1.6 4.8 0.66 1.07 1.07 91 1005.3
20260505073103 16 138 0.0 1.6 0.81 1.07 1.07 91 1004.9
20260505072549 16 138 0.0 1.6 0.94 1.07 1.07 91 1004.3
20260505072048 16 138 0.0 1.6 1.02 1.07 1.07 90 1004.8
20260505071553 16 138 0.0 0.0 1.04 1.07 1.07 90 1005.2
20260505071047 16 138 0.0 0.0 1.07 1.07 1.07 90 1005.7
20260505070547 16 138 0.0 0.0 1.07 1.07 1.07 90 1005.7
20260505070047 16 138 0.0 1.6 1.07 1.07 1.07 89 1005.9
20260505065546 16 138 0.0 1.6 0.99 0.99 0.99 89 1005.7
20260505065047 17 138 0.0 3.2 0.86 0.86 0.86 89 1006.4
20260505064546 17 138 0.0 11.3 0.71 0.71 0.71 89 1006.5
20260505064044 17 138 1.6 11.3 0.56 0.56 0.56 88 1006.9
20260505063543 17 141 0.0 4.8 0.41 0.41 0.41 87 1007.1
20260505063042 17 141 0.0 6.4 0.25 0.25 0.25 87 1006.6
20260505062541 17 141 3.2 9.7 0.10 0.10 0.10 86 1006.7
20260505062039 17 161 1.6 9.7 0.05 0.05 0.05 84 1006.7
20260505061549 18 23 1.6 4.8 0.00 0.00 0.00 83 1006.7
20260505061036 18 20 0.0 4.8 0.00 0.00 0.00 82 1005.8
20260505060535 18 20 1.6 4.8 0.00 0.00 0.00 81 1004.9
20260505060036 18 169 3.2 4.8 0.00 0.00 0.00 80 1004.4
20260505055533 18 169 0.0 3.2 0.00 0.00 0.00 79 1004.9
20260505055032 18 169 0.0 8.0 0.00 0.00 0.00 78 1004.8
20260505054554 19 169 1.6 8.0 0.00 0.00 0.00 77 1004.2
20260505054030 19 169 1.6 3.2 0.00 0.00 0.00 77 1004.1
20260505053530 20 179 0.0 3.2 0.00 0.00 0.00 75 1004.7
20260505053031 20 179 0.0 3.2 0.00 0.00 0.00 72 1004.6
20260505052525 20 179 0.0 3.2 0.00 0.00 0.00 71 1004.0
20260505052023 20 179 0.0 3.2 0.00 0.00 0.00 71 1003.5
20260505051525 20 179 0.0 3.2 0.00 0.00 0.00 71 1003.6
20260505051023 20 179 0.0 3.2 0.00 0.00 0.00 71 1003.8
20260505050519 20 179 0.0 3.2 0.00 0.00 0.00 71 1003.9
20260505041516 19 167 0.0 3.2 0.00 0.00 0.00 72 1004.0
20260505041016 19 167 0.0 3.2 0.00 0.00 0.00 72 1003.9
20260505040516 19 167 0.0 3.2 0.00 0.00 0.00 72 1004.1
20260505040016 19 167 0.0 0.0 0.00 0.00 0.00 72 1004.0
20260505035515 20 167 0.0 0.0 0.00 0.00 0.00 72 1004.1
20260505035015 20 167 0.0 0.0 0.00 0.00 0.00 71 1004.4
20260505034514 20 167 0.0 0.0 0.00 0.00 0.00 71 1004.5
20260505034018 20 167 0.0 0.0 0.00 0.00 0.00 71 1004.7
20260505033514 20 168 0.0 0.0 0.00 0.00 0.00 71 1004.6
20260505033013 20 167 0.0 0.0 0.00 0.00 0.00 71 1004.5
20260505032513 20 167 0.0 1.6 0.00 0.00 0.00 71 1004.5
20260505032012 20 167 0.0 1.6 0.00 0.00 0.00 70 1004.5
20260505031531 20 167 0.0 1.6 0.00 0.00 0.00 70 1004.6
20260505031012 20 167 0.0 1.6 0.00 0.00 0.00 70 1004.7
20260505030512 20 167 0.0 1.6 0.00 0.00 0.00 69 1004.7
20260505030014 20 167 0.0 1.6 0.00 0.00 0.00 69 1004.8
20260505025512 20 167 0.0 1.6 0.00 0.00 0.00 69 1004.7
20260505025014 20 167 0.0 1.6 0.00 0.00 0.00 69 1004.7
20260505024520 20 167 0.0 1.6 0.00 0.00 0.00 69 1004.7
20260505024011 20 167 0.0 1.6 0.00 0.00 0.00 68 1004.6
20260505023511 20 167 0.0 1.6 0.00 0.00 0.00 68 1004.5
20260505023012 20 167 0.0 1.6 0.00 0.00 0.00 68 1004.3
20260505022510 20 167 0.0 1.6 0.00 0.00 0.00 67 1004.3
20260505022011 21 167 0.0 1.6 0.00 0.00 0.00 67 1004.3
20260505021516 21 167 0.0 1.6 0.00 0.00 0.00 66 1004.4
20260505021012 21 167 0.0 1.6 0.00 0.00 0.00 66 1004.3
20260505020510 21 167 0.0 1.6 0.00 0.00 0.00 65 1004.3
20260505020024 21 167 0.0 1.6 0.00 0.00 0.00 65 1004.2
20260505015513 21 167 0.0 3.2 0.00 0.00 0.00 65 1004.2
20260505015009 21 167 0.0 4.8 0.00 0.00 0.00 64 1004.2
20260505014509 21 167 1.6 4.8 0.00 0.00 0.00 63 1004.0
20260505014012 21 167 0.0 3.2 0.00 0.00 0.00 63 1004.1
20260505013514 21 167 0.0 3.2 0.00 0.00 0.00 63 1004.1
20260505013008 21 167 0.0 3.2 0.00 0.00 0.00 62 1004.0
20260505012508 22 167 0.0 3.2 0.00 0.00 0.00 62 1004.0
20260505012008 22 167 1.6 3.2 0.00 0.00 0.00 62 1004.0
20260505011509 22 167 0.0 1.6 0.00 0.00 0.00 61 1004.1
20260505011006 22 167 0.0 1.6 0.00 0.00 0.00 61 1004.0
20260505010508 22 167 0.0 3.2 0.00 0.00 0.00 61 1004.1
20260505010006 22 167 0.0 3.2 0.00 0.00 0.00 60 1004.1
20260505005506 22 167 0.0 3.2 0.00 0.00 0.00 60 1004.0
20260505005007 22 167 0.0 4.8 0.00 0.00 0.00 60 1003.9
20260505004512 22 167 1.6 4.8 0.00 0.00 0.00 60 1003.9
20260505004005 22 166 1.6 4.8 0.00 0.00 0.00 59 1003.8
20260505003505 22 166 3.2 4.8 0.00 0.00 0.00 59 1003.8
20260505003004 23 161 1.6 4.8 0.00 0.00 0.00 59 1003.7
20260505002507 23 188 1.6 6.4 0.00 0.00 0.00 58 1003.7
20260505002007 23 168 3.2 8.0 0.00 0.00 0.00 58 1003.8
20260505001504 23 163 1.6 8.0 0.00 0.00 0.00 58 1003.7
20260505001007 23 155 3.2 9.7 0.00 0.00 0.00 58 1003.7
20260505000503 23 166 3.2 8.0 0.00 0.00 0.00 56 1003.7
20260505000007 23 178 3.2 8.0 0.00 0.00 0.00 56 1003.7
20260504235503 23 186 1.6 6.4 0.00 0.00 0.00 56 1003.7
20260504235003 24 157 3.2 6.4 0.00 0.00 0.00 55 1003.6
20260504234503 24 186 1.6 6.4 0.00 0.00 0.00 56 1003.6
20260504234002 24 170 3.2 6.4 0.00 0.00 0.00 56 1003.6
20260504233502 24 165 1.6 4.8 0.00 0.00 0.00 58 1003.6
20260504233001 24 167 1.6 8.0 0.00 0.00 0.00 56 1003.7
20260504232502 24 167 3.2 8.0 0.00 0.00 0.00 54 1003.5
20260504232000 25 206 1.6 8.0 0.00 0.00 0.00 54 1003.5
20260504231500 25 166 1.6 8.0 0.00 0.00 0.00 54 1003.5
20260504231000 25 174 4.8 11.3 0.00 0.00 0.00 55 1003.5
20260504230601 25 164 3.2 11.3 0.00 0.00 0.00 54 1003.5
20260504230109 25 171 1.6 4.8 0.00 0.00 0.00 55 1003.5
20260504225600 25 173 1.6 8.0 0.00 0.00 0.00 53 1003.4
20260504225101 25 159 1.6 8.0 0.00 0.00 0.00 54 1003.4
20260504224600 25 171 1.6 8.0 0.00 0.00 0.00 53 1003.3
20260504224101 25 207 1.6 8.0 0.00 0.00 0.00 53 1003.3
20260504223559 25 205 3.2 8.0 0.00 0.00 0.00 53 1003.3
20260504223105 25 161 1.6 8.0 0.00 0.00 0.00 53 1003.2
20260504222558 25 189 1.6 11.3 0.00 0.00 0.00 53 1003.2
20260504222058 25 167 4.8 11.3 0.00 0.00 0.00 52 1003.2
20260504221605 25 201 1.6 9.7 0.00 0.00 0.00 54 1003.2
20260504221057 25 176 3.2 9.7 0.00 0.00 0.00 52 1003.2
20260504220557 25 161 3.2 8.0 0.00 0.00 0.00 53 1003.2
20260504220101 26 203 3.2 9.7 0.00 0.00 0.00 52 1003.3
20260504215559 26 176 4.8 9.7 0.00 0.00 0.00 51 1003.2
20260504215057 26 173 3.2 8.0 0.00 0.00 0.00 51 1003.3
20260504214558 26 155 4.8 8.0 0.00 0.00 0.00 53 1003.4
20260504214056 26 165 3.2 8.0 0.00 0.00 0.00 54 1003.3
20260504213556 26 200 3.2 8.0 0.00 0.00 0.00 51 1003.3
20260504213055 26 128 3.2 8.0 0.00 0.00 0.00 51 1003.4
20260504212554 26 165 4.8 8.0 0.00 0.00 0.00 52 1003.4
20260504212058 26 176 3.2 12.9 0.00 0.00 0.00 52 1003.4
20260504211553 26 182 4.8 12.9 0.00 0.00 0.00 51 1003.5
20260504211053 26 169 3.2 6.4 0.00 0.00 0.00 51 1003.6
20260504210555 26 159 3.2 8.0 0.00 0.00 0.00 51 1003.6
20260504210055 26 196 3.2 8.0 0.00 0.00 0.00 51 1003.7
20260504205552 26 178 4.8 8.0 0.00 0.00 0.00 51 1003.7
20260504205052 27 192 4.8 8.0 0.00 0.00 0.00 51 1003.8
20260504204555 27 157 3.2 12.9 0.00 0.00 0.00 52 1003.9
20260504204050 27 175 4.8 12.9 0.00 0.00 0.00 50 1003.9
20260504203553 27 199 4.8 9.7 0.00 0.00 0.00 54 1004.0
20260504203100 26 193 1.6 11.3 0.00 0.00 0.00 53 1004.0
20260504202548 26 173 1.6 14.5 0.00 0.00 0.00 52 1004.0
20260504202048 26 179 6.4 14.5 0.00 0.00 0.00 49 1004.1
20260504201548 26 182 6.4 16.1 0.00 0.00 0.00 49 1004.2
20260504201045 26 159 8.0 16.1 0.00 0.00 0.00 49 1004.3
20260504200545 26 174 4.8 14.5 0.00 0.00 0.00 51 1004.4
20260504200044 26 145 4.8 14.5 0.00 0.00 0.00 50 1004.5
20260504195542 26 182 3.2 9.7 0.00 0.00 0.00 51 1004.6
20260504195042 26 184 4.8 11.3 0.00 0.00 0.00 51 1004.7
20260504194542 26 169 4.8 11.3 0.00 0.00 0.00 50 1004.8
20260504194043 26 174 4.8 14.5 0.00 0.00 0.00 50 1004.8
20260504193542 26 188 6.4 14.5 0.00 0.00 0.00 51 1004.9
20260504193041 26 159 4.8 9.7 0.00 0.00 0.00 50 1004.9
20260504192539 26 169 4.8 11.3 0.00 0.00 0.00 52 1004.9
20260504192038 26 223 1.6 11.3 0.00 0.00 0.00 52 1004.9
20260504191541 26 172 4.8 12.9 0.00 0.00 0.00 52 1004.9
20260504191040 26 175 4.8 12.9 0.00 0.00 0.00 51 1004.8
20260504190537 26 190 6.4 12.9 0.00 0.00 0.00 52 1004.8
20260504190034 26 167 4.8 14.5 0.00 0.00 0.00 53 1004.7
20260504185534 25 183 3.2 8.0 0.00 0.00 0.00 54 1004.6
20260504185032 25 188 3.2 9.7 0.00 0.00 0.00 53 1004.8
20260504184532 25 185 4.8 12.9 0.00 0.00 0.00 52 1004.9
20260504184031 25 159 6.4 12.9 0.00 0.00 0.00 52 1004.8
20260504183530 25 173 3.2 12.9 0.00 0.00 0.00 55 1004.8
20260504183030 25 174 4.8 16.1 0.00 0.00 0.00 52 1004.9
20260504182528 25 183 8.0 16.1 0.00 0.00 0.00 51 1005.1
20260504182027 25 185 4.8 11.3 0.00 0.00 0.00 52 1005.0
20260504181531 25 157 4.8 9.7 0.00 0.00 0.00 54 1005.1
20260504181027 25 175 4.8 9.7 0.00 0.00 0.00 55 1005.2
20260504180526 25 161 3.2 14.5 0.00 0.00 0.00 56 1005.2
20260504180026 25 232 4.8 14.5 0.00 0.00 0.00 52 1005.2
20260504175526 25 190 3.2 14.5 0.00 0.00 0.00 53 1005.4
20260504175024 25 165 4.8 9.7 0.00 0.00 0.00 52 1005.5
20260504174528 25 186 4.8 9.7 0.00 0.00 0.00 52 1005.5
20260504174024 25 174 4.8 16.1 0.00 0.00 0.00 52 1005.5
20260504173521 25 174 4.8 16.1 0.00 0.00 0.00 51 1005.6
20260504173021 25 162 4.8 16.1 0.00 0.00 0.00 53 1005.6
20260504172520 25 178 4.8 9.7 0.00 0.00 0.00 52 1005.7
20260504172019 25 188 4.8 9.7 0.00 0.00 0.00 52 1005.8
20260504171518 24 140 4.8 11.3 0.00 0.00 0.00 52 1005.8
20260504171017 24 183 6.4 11.3 0.00 0.00 0.00 52 1005.7
20260504170516 24 176 3.2 9.7 0.00 0.00 0.00 53 1005.7